| time (UTC) | temp F | wind direction | speed MPH | gust MPH | rain 1hr in | rain 24hr in | rain mn in | humidity % | barometer mb |
| 20260901141030 | 83 | 281 | 1.0 | 4.0 | 0.00 | 0.00 | 0.00 | 74 | 1020.2 |
| 20260901140524 | 83 | 23 | 2.0 | 4.0 | 0.00 | 0.00 | 0.00 | 72 | 1020.2 |
| 20260901140323 | 84 | 37 | 2.0 | 4.0 | 0.00 | 0.00 | 0.00 | 72 | 1021.1 |
| 20260901140033 | 83 | 70 | 1.0 | 5.0 | 0.00 | 0.00 | 0.00 | 76 | 1020.2 |
| 20260901135519 | 82 | 281 | 1.0 | 5.0 | 0.00 | 0.00 | 0.00 | 76 | 1020.1 |
| 20260901135015 | 82 | 329 | 1.0 | 6.0 | 0.00 | 0.00 | 0.00 | 78 | 1020.1 |
| 20260901134820 | 82 | 323 | 2.0 | 6.0 | 0.00 | 0.00 | 0.00 | 78 | 1020.9 |
| 20260901134510 | 82 | 355 | 2.0 | 6.0 | 0.00 | 0.00 | 0.00 | 79 | 1020.1 |
| 20260901134014 | 81 | 18 | 1.0 | 4.0 | 0.00 | 0.00 | 0.00 | 79 | 1020.1 |
| 20260901133511 | 81 | 338 | 1.0 | 4.0 | 0.00 | 0.00 | 0.00 | 81 | 1020.2 |
| 20260901133320 | 81 | 5 | 3.0 | 4.0 | 0.00 | 0.00 | 0.00 | 81 | 1021.1 |
| 20260901133007 | 81 | 349 | 0.0 | 3.0 | 0.00 | 0.00 | 0.00 | 83 | 1020.3 |
| 20260901132507 | 80 | 350 | 1.0 | 4.0 | 0.00 | 0.00 | 0.00 | 82 | 1020.1 |
| 20260901132006 | 80 | 355 | 1.0 | 4.0 | 0.00 | 0.00 | 0.00 | 83 | 1020.2 |
| 20260901131819 | 80 | 342 | 2.0 | 4.0 | 0.00 | 0.00 | 0.00 | 82 | 1021.0 |
| 20260901131504 | 80 | 351 | 1.0 | 5.0 | 0.00 | 0.00 | 0.00 | 83 | 1020.2 |
| 20260901131009 | 79 | 12 | 2.0 | 5.0 | 0.00 | 0.00 | 0.00 | 83 | 1020.0 |
| 20260901130510 | 79 | 83 | 0.0 | 2.0 | 0.00 | 0.00 | 0.00 | 85 | 1020.1 |
| 20260901130321 | 79 | 9 | 1.0 | 2.0 | 0.00 | 0.00 | 0.00 | 87 | 1021.0 |
| 20260901130025 | 78 | 60 | 0.0 | 2.0 | 0.00 | 0.00 | 0.00 | 88 | 1020.1 |
| 20260901125512 | 77 | 40 | 0.0 | 2.0 | 0.00 | 0.00 | 0.00 | 90 | 1020.1 |
| 20260901125019 | 77 | 40 | 0.0 | 2.0 | 0.00 | 0.00 | 0.00 | 91 | 1020.1 |
| 20260901124820 | 77 | 40 | 0.0 | 2.0 | 0.00 | 0.00 | 0.00 | 92 | 1021.1 |
| 20260901124523 | 76 | 326 | 0.0 | 1.0 | 0.00 | 0.00 | 0.00 | 92 | 1020.2 |
| 20260901124037 | 75 | 326 | 0.0 | 1.0 | 0.00 | 0.00 | 0.00 | 92 | 1020.3 |
| 20260901123537 | 75 | 29 | 0.0 | 2.0 | 0.00 | 0.00 | 0.00 | 92 | 1020.3 |
| 20260901123322 | 76 | 29 | 0.0 | 2.0 | 0.00 | 0.00 | 0.00 | 92 | 1021.1 |
| 20260901123041 | 75 | 29 | 1.0 | 2.0 | 0.00 | 0.00 | 0.00 | 92 | 1020.3 |
| 20260901122547 | 75 | 26 | 0.0 | 2.0 | 0.00 | 0.00 | 0.00 | 92 | 1020.3 |
| 20260901122048 | 74 | 54 | 0.0 | 2.0 | 0.00 | 0.00 | 0.00 | 92 | 1020.2 |
| 20260901121822 | 75 | 62 | 1.0 | 1.0 | 0.00 | 0.00 | 0.00 | 92 | 1021.0 |
| 20260901121549 | 74 | 62 | 0.0 | 1.0 | 0.00 | 0.00 | 0.00 | 92 | 1020.1 |
| 20260901121051 | 74 | 62 | 0.0 | 1.0 | 0.00 | 0.00 | 0.00 | 92 | 1020.0 |
| 20260901120554 | 74 | 62 | 0.0 | 1.0 | 0.00 | 0.00 | 0.00 | 92 | 1020.0 |
| 20260901120323 | 74 | 62 | 0.0 | 1.0 | 0.00 | 0.00 | 0.00 | 92 | 1020.8 |
| 20260901120057 | 74 | 62 | 0.0 | 1.0 | 0.00 | 0.00 | 0.00 | 92 | 1019.9 |
| 20260901115557 | 73 | 62 | 0.0 | 1.0 | 0.00 | 0.00 | 0.00 | 92 | 1019.7 |
| 20260901115059 | 73 | 62 | 0.0 | 1.0 | 0.00 | 0.00 | 0.00 | 92 | 1019.7 |
| 20260901115004 | 73 | 62 | 0.0 | 1.0 | 0.00 | 0.00 | 0.00 | 92 | 1019.7 |
| 20260901114839 | 74 | 62 | 0.0 | 1.0 | 0.00 | 0.00 | 0.00 | 92 | 1020.6 |
| 20260901114538 | 73 | 62 | 0.0 | 1.0 | 0.00 | 0.00 | 0.00 | 92 | 1019.7 |
| 20260901114042 | 73 | 62 | 0.0 | 1.0 | 0.00 | 0.00 | 0.00 | 92 | 1019.7 |
| 20260901113546 | 73 | 62 | 0.0 | 1.0 | 0.00 | 0.00 | 0.00 | 92 | 1019.7 |
| 20260901113320 | 73 | 62 | 0.0 | 1.0 | 0.00 | 0.00 | 0.00 | 92 | 1020.5 |
| 20260901113050 | 73 | 62 | 0.0 | 1.0 | 0.00 | 0.00 | 0.00 | 92 | 1019.6 |
| 20260901112554 | 73 | 62 | 0.0 | 0.0 | 0.00 | 0.00 | 0.00 | 92 | 1019.5 |
| 20260901112100 | 73 | 62 | 0.0 | 0.0 | 0.00 | 0.00 | 0.00 | 92 | 1019.5 |
| 20260901112004 | 73 | 62 | 0.0 | 0.0 | 0.00 | 0.00 | 0.00 | 92 | 1019.4 |
| 20260901111820 | 73 | 62 | 0.0 | 0.0 | 0.00 | 0.00 | 0.00 | 92 | 1020.4 |
| 20260901111509 | 73 | 62 | 0.0 | 0.0 | 0.00 | 0.00 | 0.00 | 92 | 1019.4 |
| 20260901111008 | 73 | 62 | 0.0 | 0.0 | 0.00 | 0.00 | 0.00 | 92 | 1019.4 |
| 20260901110511 | 73 | 62 | 0.0 | 0.0 | 0.00 | 0.00 | 0.00 | 92 | 1019.2 |
| 20260901110323 | 73 | 62 | 0.0 | 1.0 | 0.00 | 0.00 | 0.00 | 92 | 1020.1 |
| 20260901110008 | 73 | 62 | 0.0 | 1.0 | 0.00 | 0.00 | 0.00 | 92 | 1019.2 |
| 20260901105502 | 73 | 62 | 0.0 | 1.0 | 0.00 | 0.00 | 0.00 | 92 | 1019.1 |
| 20260901105055 | 73 | 62 | 0.0 | 0.0 | 0.00 | 0.00 | 0.00 | 92 | 1019.1 |
| 20260901105001 | 73 | 62 | 0.0 | 0.0 | 0.00 | 0.00 | 0.00 | 92 | 1019.1 |
| 20260901104847 | 74 | 62 | 0.0 | 0.0 | 0.00 | 0.00 | 0.00 | 92 | 1020.0 |
| 20260901104527 | 73 | 62 | 0.0 | 0.0 | 0.00 | 0.00 | 0.00 | 92 | 1019.1 |
| 20260901104027 | 73 | 62 | 0.0 | 0.0 | 0.00 | 0.00 | 0.00 | 92 | 1019.1 |
| 20260901103525 | 73 | 62 | 0.0 | 1.0 | 0.00 | 0.00 | 0.00 | 92 | 1019.1 |
| 20260901103332 | 74 | 62 | 0.0 | 1.0 | 0.00 | 0.00 | 0.00 | 92 | 1020.0 |
| 20260901103024 | 73 | 62 | 0.0 | 1.0 | 0.00 | 0.00 | 0.00 | 92 | 1019.1 |
| 20260901102515 | 73 | 62 | 0.0 | 1.0 | 0.00 | 0.00 | 0.00 | 92 | 1019.2 |
| 20260901102007 | 73 | 62 | 0.0 | 1.0 | 0.00 | 0.00 | 0.00 | 92 | 1019.2 |
| 20260901101837 | 74 | 62 | 0.0 | 1.0 | 0.00 | 0.00 | 0.00 | 92 | 1020.0 |
| 20260901101538 | 73 | 62 | 0.0 | 1.0 | 0.00 | 0.00 | 0.00 | 92 | 1019.0 |
| 20260901101040 | 73 | 62 | 0.0 | 3.0 | 0.00 | 0.00 | 0.00 | 92 | 1019.0 |
| 20260901100532 | 73 | 62 | 0.0 | 1.0 | 0.00 | 0.00 | 0.00 | 91 | 1018.9 |
| 20260901100325 | 74 | 55 | 0.0 | 1.0 | 0.00 | 0.00 | 0.00 | 91 | 1019.7 |
| 20260901100024 | 74 | 55 | 0.0 | 0.0 | 0.00 | 0.00 | 0.00 | 91 | 1018.9 |
| 20260901095520 | 74 | 55 | 0.0 | 0.0 | 0.00 | 0.00 | 0.00 | 91 | 1018.8 |
| 20260901095018 | 74 | 55 | 0.0 | 0.0 | 0.00 | 0.00 | 0.00 | 91 | 1018.8 |
| 20260901094830 | 74 | 55 | 0.0 | 0.0 | 0.00 | 0.00 | 0.00 | 91 | 1019.6 |
| 20260901094515 | 74 | 55 | 0.0 | 0.0 | 0.00 | 0.00 | 0.00 | 91 | 1018.6 |
| 20260901094013 | 74 | 55 | 0.0 | 0.0 | 0.00 | 0.00 | 0.00 | 91 | 1018.6 |
| 20260901093511 | 74 | 55 | 0.0 | 0.0 | 0.00 | 0.00 | 0.00 | 91 | 1018.7 |
| 20260901093318 | 74 | 55 | 0.0 | 0.0 | 0.00 | 0.00 | 0.00 | 91 | 1019.5 |
| 20260901093004 | 74 | 55 | 0.0 | 0.0 | 0.00 | 0.00 | 0.00 | 91 | 1018.5 |
| 20260901092600 | 74 | 55 | 0.0 | 0.0 | 0.00 | 0.00 | 0.00 | 91 | 1018.6 |
| 20260901092502 | 74 | 55 | 0.0 | 0.0 | 0.00 | 0.00 | 0.00 | 91 | 1018.6 |
| 20260901092059 | 74 | 55 | 0.0 | 0.0 | 0.00 | 0.00 | 0.00 | 91 | 1018.6 |
| 20260901091821 | 74 | 55 | 0.0 | 1.0 | 0.00 | 0.00 | 0.00 | 91 | 1019.5 |
| 20260901091556 | 74 | 55 | 0.0 | 1.0 | 0.00 | 0.00 | 0.00 | 91 | 1018.6 |
| 20260901091053 | 74 | 55 | 0.0 | 1.0 | 0.00 | 0.00 | 0.00 | 91 | 1018.6 |
| 20260901090546 | 74 | 55 | 0.0 | 1.0 | 0.00 | 0.00 | 0.00 | 91 | 1018.6 |
| 20260901090329 | 75 | 55 | 0.0 | 1.0 | 0.00 | 0.00 | 0.00 | 91 | 1019.5 |
| 20260901090038 | 74 | 55 | 0.0 | 1.0 | 0.00 | 0.00 | 0.00 | 91 | 1018.7 |
| 20260901085535 | 74 | 55 | 0.0 | 2.0 | 0.00 | 0.00 | 0.00 | 91 | 1018.7 |
| 20260901085034 | 74 | 55 | 0.0 | 2.0 | 0.00 | 0.00 | 0.00 | 91 | 1018.7 |
| 20260901084813 | 75 | 55 | 0.0 | 2.0 | 0.00 | 0.00 | 0.00 | 90 | 1019.5 |
| 20260901084533 | 74 | 88 | 0.0 | 1.0 | 0.00 | 0.00 | 0.00 | 90 | 1018.7 |
| 20260901084024 | 74 | 88 | 0.0 | 0.0 | 0.00 | 0.00 | 0.00 | 90 | 1018.7 |
| 20260901083521 | 74 | 88 | 0.0 | 1.0 | 0.00 | 0.00 | 0.00 | 90 | 1018.6 |
| 20260901083321 | 75 | 88 | 0.0 | 1.0 | 0.00 | 0.00 | 0.00 | 90 | 1019.5 |
| 20260901083017 | 75 | 88 | 0.0 | 1.0 | 0.00 | 0.00 | 0.00 | 90 | 1018.7 |
| 20260901082514 | 75 | 88 | 0.0 | 1.0 | 0.00 | 0.00 | 0.00 | 90 | 1018.6 |
| 20260901082013 | 75 | 88 | 0.0 | 1.0 | 0.00 | 0.00 | 0.00 | 90 | 1018.5 |
| 20260901081827 | 75 | 88 | 0.0 | 0.0 | 0.00 | 0.00 | 0.00 | 90 | 1019.5 |
| 20260901081506 | 75 | 88 | 0.0 | 0.0 | 0.00 | 0.00 | 0.00 | 90 | 1018.5 |
| 20260901081004 | 75 | 88 | 0.0 | 0.0 | 0.00 | 0.00 | 0.00 | 90 | 1018.6 |
| 20260901080600 | 75 | 89 | 0.0 | 0.0 | 0.00 | 0.00 | 0.00 | 89 | 1018.6 |
| 20260901080502 | 75 | 88 | 0.0 | 0.0 | 0.00 | 0.00 | 0.00 | 89 | 1018.6 |
| 20260901080314 | 76 | 89 | 0.0 | 0.0 | 0.00 | 0.00 | 0.00 | 89 | 1019.6 |
| 20260901080056 | 75 | 88 | 0.0 | 1.0 | 0.00 | 0.00 | 0.00 | 89 | 1018.6 |
| 20260901075554 | 75 | 88 | 0.0 | 1.0 | 0.00 | 0.00 | 0.00 | 89 | 1018.6 |
| 20260901075053 | 75 | 88 | 0.0 | 1.0 | 0.00 | 0.00 | 0.00 | 89 | 1018.6 |
| 20260901075001 | 75 | 88 | 0.0 | 1.0 | 0.00 | 0.00 | 0.00 | 89 | 1018.6 |
| 20260901074831 | 76 | 105 | 0.0 | 1.0 | 0.00 | 0.00 | 0.00 | 89 | 1019.6 |
| 20260901074546 | 75 | 105 | 0.0 | 1.0 | 0.00 | 0.00 | 0.00 | 89 | 1018.7 |
| 20260901074036 | 75 | 105 | 0.0 | 2.0 | 0.00 | 0.00 | 0.00 | 89 | 1018.7 |
| 20260901073530 | 75 | 102 | 1.0 | 3.0 | 0.00 | 0.00 | 0.00 | 89 | 1018.5 |
| 20260901073332 | 76 | 134 | 1.0 | 3.0 | 0.00 | 0.00 | 0.00 | 89 | 1019.5 |
| 20260901073025 | 75 | 132 | 1.0 | 3.0 | 0.00 | 0.00 | 0.00 | 89 | 1018.6 |
| 20260901072520 | 75 | 155 | 1.0 | 2.0 | 0.00 | 0.00 | 0.00 | 89 | 1018.6 |
| 20260901072018 | 76 | 132 | 0.0 | 2.0 | 0.00 | 0.00 | 0.00 | 88 | 1018.5 |
| 20260901071836 | 76 | 137 | 1.0 | 3.0 | 0.00 | 0.00 | 0.00 | 88 | 1019.4 |
| 20260901071523 | 76 | 135 | 0.0 | 3.0 | 0.00 | 0.00 | 0.00 | 88 | 1018.5 |
| 20260901071018 | 76 | 126 | 0.0 | 2.0 | 0.00 | 0.00 | 0.00 | 88 | 1018.5 |
| 20260901070600 | 76 | 121 | 0.0 | 3.0 | 0.00 | 0.00 | 0.00 | 88 | 1018.5 |
| 20260901070504 | 76 | 119 | 0.0 | 3.0 | 0.00 | 0.00 | 0.00 | 88 | 1018.5 |
| 20260901070403 | 76 | 161 | 0.0 | 3.0 | 0.00 | 0.00 | 0.00 | 88 | 1019.5 |
| 20260901070026 | 76 | 128 | 0.0 | 3.0 | 0.00 | 0.00 | 0.00 | 88 | 1018.6 |
| 20260901065530 | 76 | 123 | 0.0 | 2.0 | 0.00 | 0.00 | 0.00 | 88 | 1018.7 |
| 20260901065038 | 76 | 119 | 1.0 | 4.0 | 0.00 | 0.00 | 0.00 | 88 | 1018.7 |
| 20260901064813 | 77 | 117 | 1.0 | 4.0 | 0.00 | 0.00 | 0.00 | 88 | 1019.7 |
| 20260901064542 | 76 | 117 | 1.0 | 4.0 | 0.00 | 0.00 | 0.00 | 88 | 1018.7 |
| 20260901064042 | 76 | 155 | 0.0 | 3.0 | 0.00 | 0.00 | 0.00 | 87 | 1018.7 |
| 20260901063541 | 76 | 117 | 0.0 | 3.0 | 0.00 | 0.00 | 0.00 | 87 | 1018.8 |
| 20260901063321 | 77 | 120 | 2.0 | 3.0 | 0.00 | 0.00 | 0.00 | 87 | 1019.8 |
| 20260901063039 | 76 | 146 | 1.0 | 3.0 | 0.00 | 0.00 | 0.00 | 87 | 1018.9 |
| 20260901062546 | 77 | 113 | 2.0 | 3.0 | 0.00 | 0.00 | 0.00 | 87 | 1018.9 |
| 20260901062046 | 77 | 136 | 0.0 | 3.0 | 0.00 | 0.00 | 0.00 | 86 | 1018.9 |
| 20260901061825 | 77 | 144 | 1.0 | 3.0 | 0.00 | 0.00 | 0.00 | 86 | 1019.9 |
| 20260901061546 | 77 | 115 | 1.0 | 3.0 | 0.00 | 0.00 | 0.00 | 86 | 1018.9 |
| 20260901061048 | 77 | 109 | 0.0 | 4.0 | 0.00 | 0.00 | 0.00 | 86 | 1019.0 |
| 20260901060554 | 77 | 138 | 1.0 | 4.0 | 0.00 | 0.00 | 0.00 | 86 | 1019.1 |
| 20260901060332 | 77 | 109 | 1.0 | 3.0 | 0.00 | 0.00 | 0.00 | 86 | 1019.9 |
| 20260901060058 | 77 | 133 | 1.0 | 3.0 | 0.00 | 0.00 | 0.00 | 86 | 1019.1 |
| 20260901055558 | 77 | 107 | 0.0 | 3.0 | 0.00 | 0.00 | 0.00 | 86 | 1019.2 |
| 20260901055502 | 77 | 124 | 1.0 | 3.0 | 0.00 | 0.00 | 0.00 | 86 | 1019.1 |
| 20260901055007 | 77 | 103 | 1.0 | 3.0 | 0.00 | 0.00 | 0.00 | 86 | 1019.1 |
| 20260901054819 | 78 | 111 | 1.0 | 3.0 | 0.00 | 0.00 | 0.00 | 86 | 1020.1 |
| 20260901054558 | 77 | 128 | 1.0 | 3.0 | 0.00 | 0.00 | 0.00 | 86 | 1019.2 |
| 20260901054056 | 77 | 134 | 1.0 | 3.0 | 0.00 | 0.00 | 0.00 | 86 | 1019.3 |
| 20260901053558 | 77 | 96 | 0.0 | 2.0 | 0.00 | 0.00 | 0.00 | 86 | 1019.4 |
| 20260901053330 | 78 | 125 | 1.0 | 2.0 | 0.00 | 0.00 | 0.00 | 86 | 1020.3 |
| 20260901053117 | 77 | 154 | 0.0 | 3.0 | 0.00 | 0.00 | 0.00 | 85 | 1019.3 |
| 20260901052546 | 78 | 114 | 0.0 | 3.0 | 0.00 | 0.00 | 0.00 | 85 | 1019.4 |
| 20260901052040 | 78 | 177 | 0.0 | 3.0 | 0.00 | 0.00 | 0.00 | 85 | 1019.3 |
| 20260901051836 | 78 | 133 | 1.0 | 3.0 | 0.00 | 0.00 | 0.00 | 85 | 1020.2 |
| 20260901051516 | 78 | 119 | 0.0 | 3.0 | 0.00 | 0.00 | 0.00 | 85 | 1019.3 |
| 20260901051012 | 78 | 123 | 0.0 | 4.0 | 0.00 | 0.00 | 0.00 | 85 | 1019.4 |
| 20260901050508 | 78 | 159 | 1.0 | 4.0 | 0.00 | 0.00 | 0.00 | 85 | 1019.5 |
| 20260901050327 | 78 | 124 | 2.0 | 3.0 | 0.00 | 0.00 | 0.00 | 85 | 1020.4 |
| 20260901050004 | 78 | 108 | 0.0 | 2.0 | 0.00 | 0.00 | 0.00 | 85 | 1019.5 |
| 20260901045600 | 78 | 132 | 0.0 | 3.0 | 0.00 | 0.00 | 0.00 | 85 | 1019.5 |
| 20260901045503 | 78 | 150 | 0.0 | 3.0 | 0.00 | 0.00 | 0.00 | 85 | 1019.5 |
| 20260901045056 | 78 | 114 | 1.0 | 3.0 | 0.00 | 0.00 | 0.00 | 85 | 1019.4 |
| 20260901044815 | 79 | 121 | 1.0 | 3.0 | 0.00 | 0.00 | 0.00 | 85 | 1020.3 |
| 20260901044605 | 78 | 144 | 0.0 | 3.0 | 0.00 | 0.00 | 0.00 | 84 | 1019.4 |
| 20260901044050 | 78 | 163 | 0.0 | 3.0 | 0.00 | 0.00 | 0.00 | 84 | 1019.5 |
| 20260901043546 | 78 | 142 | 1.0 | 5.0 | 0.00 | 0.00 | 0.00 | 84 | 1019.5 |
| 20260901043327 | 79 | 155 | 2.0 | 5.0 | 0.00 | 0.00 | 0.00 | 84 | 1020.3 |
| 20260901043038 | 78 | 159 | 2.0 | 6.0 | 0.00 | 0.00 | 0.00 | 84 | 1019.4 |
| 20260901042539 | 79 | 187 | 0.0 | 6.0 | 0.00 | 0.00 | 0.00 | 84 | 1019.4 |
| 20260901042038 | 79 | 151 | 1.0 | 4.0 | 0.00 | 0.00 | 0.00 | 83 | 1019.5 |
| 20260901041816 | 79 | 142 | 1.0 | 4.0 | 0.00 | 0.00 | 0.00 | 83 | 1020.4 |
| 20260901041535 | 79 | 168 | 1.0 | 4.0 | 0.00 | 0.00 | 0.00 | 83 | 1019.6 |
| 20260901041028 | 79 | 161 | 1.0 | 6.0 | 0.00 | 0.00 | 0.00 | 83 | 1019.6 |
| 20260901040524 | 79 | 107 | 1.0 | 7.0 | 0.00 | 0.00 | 0.00 | 83 | 1019.6 |
| 20260901040324 | 79 | 137 | 1.0 | 7.0 | 0.00 | 0.00 | 0.00 | 83 | 1020.3 |
| 20260901040025 | 79 | 164 | 2.0 | 7.0 | 0.00 | 0.00 | 0.00 | 83 | 1019.5 |
| 20260901035524 | 79 | 161 | 1.0 | 5.0 | 0.00 | 0.00 | 0.00 | 82 | 1019.5 |
| 20260901035033 | 79 | 116 | 1.0 | 5.0 | 0.00 | 0.00 | 0.00 | 83 | 1019.5 |
| 20260901034815 | 80 | 104 | 2.0 | 5.0 | 0.00 | 0.00 | 0.00 | 83 | 1020.4 |
| 20260901034532 | 79 | 119 | 0.0 | 4.0 | 0.00 | 0.00 | 0.00 | 83 | 1019.6 |
| 20260901034035 | 79 | 111 | 1.0 | 4.0 | 0.00 | 0.00 | 0.00 | 83 | 1019.6 |
| 20260901033537 | 79 | 103 | 1.0 | 3.0 | 0.00 | 0.00 | 0.00 | 83 | 1019.5 |
| 20260901033320 | 80 | 113 | 0.0 | 3.0 | 0.00 | 0.00 | 0.00 | 83 | 1020.4 |
| 20260901033036 | 79 | 165 | 0.0 | 2.0 | 0.00 | 0.00 | 0.00 | 82 | 1019.6 |
| 20260901032528 | 79 | 128 | 0.0 | 4.0 | 0.00 | 0.00 | 0.00 | 82 | 1019.6 |
| 20260901032027 | 79 | 107 | 0.0 | 4.0 | 0.00 | 0.00 | 0.00 | 82 | 1019.6 |
| 20260901031819 | 80 | 106 | 0.0 | 4.0 | 0.00 | 0.00 | 0.00 | 82 | 1020.5 |
| 20260901031524 | 80 | 165 | 0.0 | 2.0 | 0.00 | 0.00 | 0.00 | 82 | 1019.5 |
| 20260901031020 | 80 | 141 | 0.0 | 3.0 | 0.00 | 0.00 | 0.00 | 81 | 1019.5 |
| 20260901030516 | 80 | 141 | 1.0 | 3.0 | 0.00 | 0.00 | 0.00 | 81 | 1019.4 |
| 20260901030320 | 80 | 110 | 1.0 | 3.0 | 0.00 | 0.00 | 0.00 | 81 | 1020.4 |
| 20260901030012 | 80 | 111 | 0.0 | 3.0 | 0.00 | 0.00 | 0.00 | 81 | 1019.5 |
| 20260901025510 | 80 | 144 | 0.0 | 3.0 | 0.00 | 0.00 | 0.00 | 81 | 1019.5 |
| 20260901025007 | 80 | 127 | 0.0 | 2.0 | 0.00 | 0.00 | 0.00 | 81 | 1019.6 |
| 20260901024818 | 80 | 127 | 0.0 | 2.0 | 0.00 | 0.00 | 0.00 | 80 | 1020.4 |
| 20260901024600 | 80 | 127 | 0.0 | 3.0 | 0.00 | 0.00 | 0.00 | 81 | 1019.5 |
| 20260901024505 | 80 | 127 | 0.0 | 3.0 | 0.00 | 0.00 | 0.00 | 80 | 1019.4 |
| 20260901024058 | 80 | 123 | 0.0 | 3.0 | 0.00 | 0.00 | 0.00 | 80 | 1019.5 |
| 20260901023558 | 80 | 111 | 0.0 | 2.0 | 0.00 | 0.00 | 0.00 | 80 | 1019.5 |
| 20260901023320 | 81 | 141 | 0.0 | 2.0 | 0.00 | 0.00 | 0.00 | 80 | 1020.4 |
| 20260901023103 | 80 | 123 | 0.0 | 2.0 | 0.00 | 0.00 | 0.00 | 80 | 1019.5 |
| 20260901022548 | 80 | 162 | 0.0 | 3.0 | 0.00 | 0.00 | 0.00 | 80 | 1019.4 |
| 20260901022050 | 80 | 169 | 0.0 | 3.0 | 0.00 | 0.00 | 0.00 | 79 | 1019.4 |
| 20260901021819 | 81 | 184 | 1.0 | 3.0 | 0.00 | 0.00 | 0.00 | 79 | 1020.3 |
| 20260901021546 | 81 | 145 | 1.0 | 3.0 | 0.00 | 0.00 | 0.00 | 79 | 1019.3 |
| 20260901021040 | 81 | 118 | 1.0 | 4.0 | 0.00 | 0.00 | 0.00 | 79 | 1019.4 |
| 20260901020540 | 81 | 118 | 1.0 | 4.0 | 0.00 | 0.00 | 0.00 | 78 | 1019.3 |
| 20260901020320 | 81 | 136 | 2.0 | 4.0 | 0.00 | 0.00 | 0.00 | 78 | 1020.2 |
| 20260901020040 | 81 | 161 | 1.0 | 3.0 | 0.00 | 0.00 | 0.00 | 78 | 1019.3 |
| 20260901015529 | 81 | 136 | 1.0 | 4.0 | 0.00 | 0.00 | 0.00 | 78 | 1019.2 |
| 20260901015026 | 81 | 132 | 1.0 | 4.0 | 0.00 | 0.00 | 0.00 | 77 | 1019.3 |
| 20260901014818 | 82 | 159 | 3.0 | 4.0 | 0.00 | 0.00 | 0.00 | 77 | 1020.1 |
| 20260901014522 | 82 | 120 | 1.0 | 4.0 | 0.00 | 0.00 | 0.00 | 77 | 1019.2 |
| 20260901014020 | 82 | 148 | 1.0 | 4.0 | 0.00 | 0.00 | 0.00 | 76 | 1019.1 |
| 20260901013518 | 82 | 136 | 1.0 | 5.0 | 0.00 | 0.00 | 0.00 | 76 | 1019.0 |
| 20260901013318 | 82 | 120 | 2.0 | 5.0 | 0.00 | 0.00 | 0.00 | 75 | 1019.8 |
| 20260901013014 | 82 | 164 | 1.0 | 6.0 | 0.00 | 0.00 | 0.00 | 75 | 1018.9 |
| 20260901012511 | 82 | 135 | 1.0 | 6.0 | 0.00 | 0.00 | 0.00 | 74 | 1018.8 |
| 20260901012010 | 83 | 174 | 2.0 | 8.0 | 0.00 | 0.00 | 0.00 | 73 | 1018.7 |
| 20260901011816 | 83 | 182 | 2.0 | 8.0 | 0.00 | 0.00 | 0.00 | 73 | 1019.5 |
| 20260901011519 | 83 | 123 | 1.0 | 10.0 | 0.00 | 0.00 | 0.00 | 72 | 1018.6 |
| 20260901011006 | 83 | 139 | 4.0 | 10.0 | 0.00 | 0.00 | 0.00 | 72 | 1018.6 |
| 20260901010504 | 83 | 32 | 0.0 | 2.0 | 0.00 | 0.00 | 0.00 | 72 | 1018.4 |
| 20260901010316 | 83 | 32 | 1.0 | 2.0 | 0.00 | 0.00 | 0.00 | 72 | 1019.2 |
| 20260901010058 | 83 | 32 | 0.0 | 1.0 | 0.00 | 0.00 | 0.00 | 72 | 1018.3 |
| 20260901005556 | 83 | 32 | 0.0 | 1.0 | 0.00 | 0.00 | 0.00 | 72 | 1018.3 |
| 20260901005054 | 84 | 32 | 0.0 | 1.0 | 0.00 | 0.00 | 0.00 | 72 | 1018.1 |
| 20260901004815 | 84 | 32 | 0.0 | 1.0 | 0.00 | 0.00 | 0.00 | 72 | 1019.0 |
| 20260901004557 | 84 | 32 | 0.0 | 1.0 | 0.00 | 0.00 | 0.00 | 72 | 1018.1 |
| 20260901004047 | 84 | 32 | 0.0 | 2.0 | 0.00 | 0.00 | 0.00 | 71 | 1018.2 |
| 20260901003546 | 84 | 32 | 0.0 | 2.0 | 0.00 | 0.00 | 0.00 | 69 | 1018.1 |
| 20260901003322 | 85 | 32 | 1.0 | 2.0 | 0.00 | 0.00 | 0.00 | 69 | 1019.1 |
| 20260901003044 | 85 | 32 | 0.0 | 2.0 | 0.00 | 0.00 | 0.00 | 69 | 1018.1 |
| 20260901002545 | 85 | 32 | 0.0 | 2.0 | 0.00 | 0.00 | 0.00 | 68 | 1018.1 |
| 20260901002045 | 85 | 32 | 0.0 | 2.0 | 0.00 | 0.00 | 0.00 | 68 | 1018.1 |
| 20260901001821 | 86 | 32 | 0.0 | 2.0 | 0.00 | 0.00 | 0.00 | 67 | 1019.0 |
| 20260901001538 | 86 | 32 | 0.0 | 2.0 | 0.00 | 0.00 | 0.00 | 67 | 1018.1 |
| 20260901001029 | 86 | 32 | 0.0 | 2.0 | 0.00 | 0.00 | 0.00 | 67 | 1018.0 |
| 20260901000527 | 86 | 32 | 0.0 | 2.0 | 0.00 | 0.00 | 0.00 | 65 | 1017.9 |
| 20260901000322 | 87 | 56 | 0.0 | 2.0 | 0.00 | 0.00 | 0.00 | 65 | 1018.9 |
| 20260901000023 | 87 | 56 | 0.0 | 2.0 | 0.00 | 0.00 | 0.00 | 65 | 1017.9 |
| 20260831235522 | 87 | 74 | 0.0 | 2.0 | 0.00 | 0.00 | 0.00 | 64 | 1017.9 |
| 20260831235020 | 87 | 62 | 0.0 | 2.0 | 0.00 | 0.00 | 0.00 | 63 | 1017.9 |
| 20260831234822 | 88 | 87 | 0.0 | 2.0 | 0.00 | 0.00 | 0.00 | 63 | 1018.7 |
| 20260831234518 | 88 | 64 | 0.0 | 2.0 | 0.00 | 0.00 | 0.00 | 63 | 1017.8 |
| 20260831234017 | 88 | 68 | 0.0 | 3.0 | 0.00 | 0.00 | 0.00 | 62 | 1017.7 |
| 20260831233513 | 88 | 51 | 0.0 | 3.0 | 0.00 | 0.00 | 0.00 | 61 | 1017.6 |
| 20260831233323 | 89 | 57 | 0.0 | 3.0 | 0.00 | 0.00 | 0.00 | 61 | 1018.5 |
| 20260831233009 | 88 | 52 | 0.0 | 3.0 | 0.00 | 0.00 | 0.00 | 61 | 1017.6 |
| 20260831232507 | 89 | 23 | 1.0 | 4.0 | 0.00 | 0.00 | 0.00 | 60 | 1017.7 |
| 20260831232008 | 89 | 59 | 1.0 | 4.0 | 0.00 | 0.00 | 0.00 | 59 | 1017.6 |
| 20260831231823 | 89 | 22 | 1.0 | 4.0 | 0.00 | 0.00 | 0.00 | 59 | 1018.4 |
| 20260831231600 | 89 | 51 | 1.0 | 4.0 | 0.00 | 0.00 | 0.00 | 59 | 1017.6 |
| 20260831231502 | 89 | 67 | 1.0 | 5.0 | 0.00 | 0.00 | 0.00 | 59 | 1017.6 |
| 20260831231058 | 89 | 329 | 1.0 | 5.0 | 0.00 | 0.00 | 0.00 | 59 | 1017.7 |
| 20260831230556 | 89 | 24 | 1.0 | 4.0 | 0.00 | 0.00 | 0.00 | 59 | 1017.7 |
| 20260831230325 | 90 | 355 | 1.0 | 4.0 | 0.00 | 0.00 | 0.00 | 59 | 1018.6 |
| 20260831230055 | 89 | 33 | 0.0 | 5.0 | 0.00 | 0.00 | 0.00 | 59 | 1017.8 |
| 20260831225553 | 89 | 63 | 1.0 | 5.0 | 0.00 | 0.00 | 0.00 | 59 | 1017.7 |
| 20260831225047 | 90 | 20 | 1.0 | 6.0 | 0.00 | 0.00 | 0.00 | 58 | 1017.7 |
| 20260831224825 | 90 | 52 | 3.0 | 6.0 | 0.00 | 0.00 | 0.00 | 58 | 1018.5 |
| 20260831224544 | 90 | 32 | 1.0 | 4.0 | 0.00 | 0.00 | 0.00 | 58 | 1017.7 |
| 20260831224042 | 90 | 9 | 1.0 | 6.0 | 0.00 | 0.00 | 0.00 | 57 | 1017.6 |
| 20260831223536 | 90 | 28 | 2.0 | 6.0 | 0.00 | 0.00 | 0.00 | 56 | 1017.5 |
| 20260831223347 | 91 | 40 | 3.0 | 5.0 | 0.00 | 0.00 | 0.00 | 57 | 1018.4 |
| 20260831223012 | 90 | 59 | 2.0 | 5.0 | 0.00 | 0.00 | 0.00 | 57 | 1017.6 |
| 20260831222510 | 90 | 360 | 1.0 | 5.0 | 0.00 | 0.00 | 0.00 | 57 | 1017.6 |
| 20260831222007 | 90 | 68 | 2.0 | 8.0 | 0.00 | 0.00 | 0.00 | 57 | 1017.6 |
| 20260831221824 | 91 | 73 | 2.0 | 8.0 | 0.00 | 0.00 | 0.00 | 56 | 1018.4 |
| 20260831221505 | 91 | 12 | 2.0 | 8.0 | 0.00 | 0.00 | 0.00 | 57 | 1017.7 |
| 20260831221059 | 91 | 321 | 2.0 | 8.0 | 0.00 | 0.00 | 0.00 | 56 | 1017.7 |
| 20260831221002 | 91 | 54 | 0.0 | 5.0 | 0.00 | 0.00 | 0.00 | 56 | 1017.8 |
| 20260831220557 | 91 | 55 | 2.0 | 5.0 | 0.00 | 0.00 | 0.00 | 56 | 1017.8 |
| 20260831220326 | 92 | 19 | 2.0 | 7.0 | 0.00 | 0.00 | 0.00 | 57 | 1018.7 |
| 20260831215554 | 91 | 65 | 3.0 | 7.0 | 0.00 | 0.00 | 0.00 | 55 | 1017.8 |
| 20260831215046 | 91 | 62 | 1.0 | 6.0 | 0.00 | 0.00 | 0.00 | 56 | 1017.9 |
| 20260831214845 | 92 | 325 | 2.0 | 6.0 | 0.00 | 0.00 | 0.00 | 55 | 1018.7 |
| 20260831214521 | 91 | 59 | 1.0 | 7.0 | 0.00 | 0.00 | 0.00 | 56 | 1017.8 |
| 20260831214022 | 91 | 92 | 2.0 | 7.0 | 0.00 | 0.00 | 0.00 | 54 | 1017.9 |
| 20260831213517 | 91 | 57 | 2.0 | 7.0 | 0.00 | 0.00 | 0.00 | 54 | 1017.9 |
| 20260831213326 | 91 | 36 | 1.0 | 6.0 | 0.00 | 0.00 | 0.00 | 54 | 1018.7 |
| 20260831213014 | 91 | 13 | 1.0 | 6.0 | 0.00 | 0.00 | 0.00 | 54 | 1017.9 |
| 20260831212511 | 91 | 54 | 3.0 | 6.0 | 0.00 | 0.00 | 0.00 | 52 | 1017.9 |
| 20260831212010 | 92 | 346 | 1.0 | 5.0 | 0.00 | 0.00 | 0.00 | 54 | 1017.9 |
| 20260831211825 | 92 | 54 | 2.0 | 5.0 | 0.00 | 0.00 | 0.00 | 52 | 1018.8 |
| 20260831211508 | 92 | 79 | 1.0 | 5.0 | 0.00 | 0.00 | 0.00 | 53 | 1017.9 |
| 20260831211008 | 92 | 360 | 2.0 | 5.0 | 0.00 | 0.00 | 0.00 | 54 | 1017.9 |
| 20260831210507 | 91 | 350 | 1.0 | 5.0 | 0.00 | 0.00 | 0.00 | 52 | 1018.0 |
| 20260831210329 | 92 | 79 | 1.0 | 7.0 | 0.00 | 0.00 | 0.00 | 54 | 1019.0 |
| 20260831210004 | 91 | 77 | 1.0 | 7.0 | 0.00 | 0.00 | 0.00 | 51 | 1018.1 |
| 20260831205559 | 92 | 57 | 2.0 | 7.0 | 0.00 | 0.00 | 0.00 | 52 | 1018.2 |
| 20260831205502 | 92 | 61 | 2.0 | 5.0 | 0.00 | 0.00 | 0.00 | 52 | 1018.1 |
| 20260831205057 | 92 | 46 | 2.0 | 5.0 | 0.00 | 0.00 | 0.00 | 54 | 1018.2 |
| 20260831204814 | 92 | 71 | 1.0 | 5.0 | 0.00 | 0.00 | 0.00 | 54 | 1019.0 |
| 20260831204556 | 92 | 298 | 2.0 | 5.0 | 0.00 | 0.00 | 0.00 | 53 | 1018.2 |
| 20260831204050 | 92 | 78 | 1.0 | 5.0 | 0.00 | 0.00 | 0.00 | 54 | 1018.1 |
| 20260831203547 | 91 | 342 | 1.0 | 6.0 | 0.00 | 0.00 | 0.00 | 53 | 1018.0 |
| 20260831203321 | 92 | 32 | 2.0 | 6.0 | 0.00 | 0.00 | 0.00 | 53 | 1018.9 |
| 20260831203045 | 91 | 346 | 1.0 | 6.0 | 0.00 | 0.00 | 0.00 | 54 | 1018.1 |
| 20260831202541 | 91 | 355 | 1.0 | 4.0 | 0.00 | 0.00 | 0.00 | 56 | 1018.1 |
| 20260831202031 | 91 | 5 | 1.0 | 5.0 | 0.00 | 0.00 | 0.00 | 55 | 1018.1 |
| 20260831201826 | 91 | 19 | 2.0 | 6.0 | 0.00 | 0.00 | 0.00 | 55 | 1019.1 |
| 20260831201528 | 91 | 36 | 1.0 | 6.0 | 0.00 | 0.00 | 0.00 | 54 | 1018.2 |
| 20260831201026 | 91 | 64 | 2.0 | 5.0 | 0.00 | 0.00 | 0.00 | 55 | 1018.3 |
| 20260831200523 | 91 | 5 | 1.0 | 5.0 | 0.00 | 0.00 | 0.00 | 54 | 1018.5 |
| 20260831200332 | 91 | 117 | 2.0 | 5.0 | 0.00 | 0.00 | 0.00 | 55 | 1019.4 |
| 20260831200057 | 90 | 44 | 1.0 | 5.0 | 0.00 | 0.00 | 0.00 | 55 | 1018.5 |
| 20260831195553 | 90 | 53 | 2.0 | 11.0 | 0.00 | 0.00 | 0.00 | 53 | 1018.6 |
| 20260831195051 | 90 | 355 | 1.0 | 11.0 | 0.00 | 0.00 | 0.00 | 58 | 1018.7 |
| 20260831194817 | 90 | 40 | 4.0 | 11.0 | 0.00 | 0.00 | 0.00 | 55 | 1019.5 |
| 20260831194550 | 90 | 65 | 2.0 | 9.0 | 0.00 | 0.00 | 0.00 | 56 | 1018.6 |
| 20260831194043 | 90 | 52 | 3.0 | 9.0 | 0.00 | 0.00 | 0.00 | 56 | 1018.7 |
| 20260831193543 | 90 | 355 | 3.0 | 5.0 | 0.00 | 0.00 | 0.00 | 58 | 1018.7 |
| 20260831193325 | 90 | 5 | 3.0 | 9.0 | 0.00 | 0.00 | 0.00 | 57 | 1019.5 |
| 20260831193038 | 90 | 326 | 2.0 | 9.0 | 0.00 | 0.00 | 0.00 | 57 | 1018.6 |
| 20260831192529 | 90 | 69 | 2.0 | 9.0 | 0.00 | 0.00 | 0.00 | 57 | 1018.8 |
| 20260831192031 | 91 | 55 | 1.0 | 5.0 | 0.00 | 0.00 | 0.00 | 59 | 1018.9 |
| 20260831191829 | 91 | 355 | 1.0 | 5.0 | 0.00 | 0.00 | 0.00 | 60 | 1019.7 |
| 20260831191531 | 90 | 80 | 2.0 | 5.0 | 0.00 | 0.00 | 0.00 | 58 | 1019.0 |
| 20260831191019 | 90 | 82 | 1.0 | 9.0 | 0.00 | 0.00 | 0.00 | 61 | 1019.0 |
| 20260831190515 | 89 | 112 | 2.0 | 9.0 | 0.00 | 0.00 | 0.00 | 59 | 1019.0 |
| 20260831190317 | 90 | 123 | 4.0 | 9.0 | 0.00 | 0.00 | 0.00 | 60 | 1019.8 |
| 20260831190011 | 89 | 355 | 2.0 | 9.0 | 0.00 | 0.00 | 0.00 | 60 | 1019.0 |
| 20260831185509 | 89 | 168 | 4.0 | 9.0 | 0.00 | 0.00 | 0.00 | 59 | 1019.1 |
| 20260831185008 | 88 | 93 | 1.0 | 7.0 | 0.00 | 0.00 | 0.00 | 62 | 1019.1 |
| 20260831184821 | 89 | 44 | 2.0 | 7.0 | 0.00 | 0.00 | 0.00 | 61 | 1019.9 |
| 20260831184504 | 88 | 15 | 0.0 | 5.0 | 0.00 | 0.00 | 0.00 | 65 | 1019.2 |
| 20260831184057 | 87 | 34 | 1.0 | 5.0 | 0.00 | 0.00 | 0.00 | 66 | 1019.3 |
| 20260831183554 | 88 | 5 | 2.0 | 5.0 | 0.00 | 0.00 | 0.00 | 63 | 1019.6 |
| 20260831183328 | 88 | 24 | 1.0 | 7.0 | 0.00 | 0.00 | 0.00 | 63 | 1020.5 |
| 20260831183047 | 88 | 46 | 1.0 | 7.0 | 0.00 | 0.00 | 0.00 | 63 | 1019.7 |
| 20260831182543 | 88 | 11 | 3.0 | 7.0 | 0.00 | 0.00 | 0.00 | 62 | 1019.7 |
| 20260831182040 | 88 | 51 | 1.0 | 7.0 | 0.00 | 0.00 | 0.00 | 65 | 1019.7 |
| 20260831181817 | 88 | 45 | 2.0 | 5.0 | 0.00 | 0.00 | 0.00 | 64 | 1020.6 |
| 20260831181535 | 87 | 329 | 1.0 | 5.0 | 0.00 | 0.00 | 0.00 | 65 | 1019.9 |
| 20260831181026 | 88 | 40 | 1.0 | 5.0 | 0.00 | 0.00 | 0.00 | 63 | 1020.0 |
| 20260831180523 | 88 | 355 | 1.0 | 6.0 | 0.00 | 0.00 | 0.00 | 63 | 1020.0 |
| 20260831180322 | 89 | 26 | 2.0 | 6.0 | 0.00 | 0.00 | 0.00 | 64 | 1020.8 |
| 20260831180029 | 89 | 350 | 2.0 | 8.0 | 0.00 | 0.22 | 0.00 | 64 | 1020.0 |
| 20260831175517 | 88 | 35 | 2.0 | 8.0 | 0.00 | 0.22 | 0.00 | 65 | 1020.0 |
| 20260831175015 | 88 | 123 | 3.0 | 6.0 | 0.00 | 0.22 | 0.00 | 64 | 1020.1 |
| 20260831174837 | 88 | 56 | 3.0 | 6.0 | 0.00 | 0.22 | 0.00 | 63 | 1021.0 |
| 20260831174549 | 88 | 5 | 1.0 | 6.0 | 0.00 | 0.22 | 0.00 | 64 | 1020.2 |
| 20260831174049 | 89 | 131 | 2.0 | 6.0 | 0.00 | 0.22 | 0.00 | 62 | 1020.2 |
| 20260831173544 | 89 | 45 | 2.0 | 4.0 | 0.00 | 0.22 | 0.00 | 61 | 1020.2 |
| 20260831173317 | 89 | 169 | 2.0 | 7.0 | 0.00 | 0.22 | 0.00 | 65 | 1021.0 |
| 20260831173041 | 89 | 69 | 1.0 | 7.0 | 0.00 | 0.22 | 0.00 | 64 | 1020.2 |
| 20260831172539 | 88 | 111 | 2.0 | 7.0 | 0.00 | 0.22 | 0.00 | 63 | 1020.4 |
| 20260831172037 | 88 | 42 | 2.0 | 7.0 | 0.00 | 0.22 | 0.00 | 62 | 1020.4 |
| 20260831171817 | 89 | 63 | 2.0 | 7.0 | 0.00 | 0.22 | 0.00 | 64 | 1021.2 |
| 20260831171535 | 88 | 78 | 3.0 | 7.0 | 0.00 | 0.22 | 0.00 | 63 | 1020.4 |
| 20260831171033 | 89 | 65 | 2.0 | 9.0 | 0.00 | 0.22 | 0.00 | 62 | 1020.5 |
| 20260831170527 | 88 | 96 | 2.0 | 7.0 | 0.00 | 0.22 | 0.00 | 64 | 1020.5 |
| 20260831170318 | 88 | 121 | 3.0 | 7.0 | 0.00 | 0.22 | 0.00 | 65 | 1021.4 |
| 20260831170021 | 87 | 19 | 3.0 | 7.0 | 0.00 | 0.22 | 0.00 | 65 | 1020.6 |
| 20260831165519 | 87 | 65 | 2.0 | 7.0 | 0.00 | 0.22 | 0.00 | 67 | 1020.6 |
| 20260831165016 | 87 | 80 | 2.0 | 7.0 | 0.00 | 0.22 | 0.00 | 65 | 1020.6 |
| 20260831164837 | 88 | 45 | 4.0 | 7.0 | 0.00 | 0.22 | 0.00 | 64 | 1021.5 |
| 20260831164559 | 88 | 130 | 2.0 | 9.0 | 0.00 | 0.22 | 0.00 | 65 | 1020.6 |
| 20260831164049 | 87 | 102 | 3.0 | 9.0 | 0.00 | 0.22 | 0.00 | 67 | 1020.6 |
| 20260831163547 | 86 | 78 | 3.0 | 9.0 | 0.00 | 0.22 | 0.00 | 68 | 1020.6 |
| 20260831163316 | 86 | 144 | 4.0 | 9.0 | 0.00 | 0.22 | 0.00 | 68 | 1021.6 |
| 20260831163044 | 86 | 122 | 4.0 | 8.0 | 0.00 | 0.22 | 0.00 | 68 | 1020.6 |
| 20260831162541 | 85 | 67 | 1.0 | 6.0 | 0.00 | 0.22 | 0.00 | 71 | 1020.6 |
| 20260831162042 | 84 | 25 | 2.0 | 5.0 | 0.00 | 0.22 | 0.00 | 73 | 1020.6 |
| 20260831161815 | 84 | 338 | 2.0 | 4.0 | 0.00 | 0.22 | 0.00 | 72 | 1021.4 |
| 20260831161537 | 84 | 78 | 1.0 | 5.0 | 0.00 | 0.22 | 0.00 | 72 | 1020.6 |
| 20260831161034 | 84 | 41 | 1.0 | 6.0 | 0.00 | 0.22 | 0.00 | 73 | 1020.7 |
| 20260831160539 | 84 | 59 | 2.0 | 6.0 | 0.00 | 0.22 | 0.00 | 72 | 1020.8 |
| 20260831160317 | 84 | 41 | 3.0 | 7.0 | 0.00 | 0.22 | 0.00 | 74 | 1021.6 |
| 20260831160047 | 84 | 43 | 1.0 | 6.0 | 0.00 | 0.22 | 0.00 | 74 | 1020.8 |
| 20260831155549 | 84 | 59 | 2.0 | 4.0 | 0.00 | 0.22 | 0.00 | 73 | 1020.9 |
| 20260831155056 | 84 | 43 | 1.0 | 5.0 | 0.00 | 0.22 | 0.00 | 74 | 1020.9 |
| 20260831154817 | 84 | 109 | 2.0 | 5.0 | 0.00 | 0.22 | 0.00 | 74 | 1021.9 |
| 20260831154604 | 84 | 59 | 2.0 | 5.0 | 0.00 | 0.22 | 0.00 | 74 | 1021.1 |
| 20260831154059 | 84 | 100 | 1.0 | 5.0 | 0.00 | 0.22 | 0.00 | 75 | 1021.0 |
| 20260831154003 | 84 | 5 | 1.0 | 5.0 | 0.00 | 0.22 | 0.00 | 74 | 1021.0 |
| 20260831153602 | 83 | 94 | 1.0 | 5.0 | 0.00 | 0.22 | 0.00 | 74 | 1021.1 |
| 20260831153502 | 83 | 89 | 2.0 | 5.0 | 0.00 | 0.22 | 0.00 | 73 | 1021.1 |
| 20260831153319 | 84 | 346 | 3.0 | 5.0 | 0.00 | 0.22 | 0.00 | 75 | 1021.9 |
| 20260831153002 | 83 | 355 | 1.0 | 5.0 | 0.00 | 0.22 | 0.00 | 76 | 1021.1 |
| 20260831152506 | 83 | 38 | 2.0 | 4.0 | 0.00 | 0.22 | 0.00 | 77 | 1021.1 |
| 20260831152003 | 83 | 69 | 1.0 | 4.0 | 0.00 | 0.22 | 0.00 | 78 | 1021.1 |
| 20260831151818 | 83 | 5 | 0.0 | 3.0 | 0.00 | 0.22 | 0.00 | 78 | 1021.8 |
| 20260831151505 | 82 | 344 | 1.0 | 3.0 | 0.00 | 0.22 | 0.00 | 79 | 1021.1 |
| 20260831151009 | 82 | 73 | 0.0 | 4.0 | 0.00 | 0.22 | 0.00 | 78 | 1021.1 |
| 20260831150515 | 82 | 31 | 2.0 | 4.0 | 0.00 | 0.22 | 0.00 | 79 | 1021.1 |
| 20260831150320 | 83 | 62 | 2.0 | 4.0 | 0.00 | 0.22 | 0.00 | 79 | 1021.9 |
| 20260831150013 | 82 | 331 | 1.0 | 3.0 | 0.00 | 0.22 | 0.00 | 80 | 1021.0 |
| 20260831145511 | 81 | 345 | 1.0 | 4.0 | 0.00 | 0.22 | 0.00 | 80 | 1020.9 |
| 20260831145009 | 82 | 333 | 2.0 | 5.0 | 0.00 | 0.22 | 0.00 | 81 | 1020.8 |
| 20260831144826 | 82 | 26 | 2.0 | 5.0 | 0.00 | 0.22 | 0.00 | 81 | 1021.6 |
| 20260831144513 | 81 | 15 | 2.0 | 5.0 | 0.00 | 0.22 | 0.00 | 81 | 1020.8 |
| 20260831144003 | 81 | 81 | 0.0 | 4.0 | 0.00 | 0.22 | 0.00 | 83 | 1020.8 |
| 20260831143558 | 80 | 355 | 1.0 | 4.0 | 0.00 | 0.22 | 0.00 | 84 | 1020.8 |
| 20260831143314 | 80 | 115 | 2.0 | 4.0 | 0.00 | 0.22 | 0.00 | 85 | 1021.7 |
| 20260831143101 | 79 | 74 | 1.0 | 4.0 | 0.00 | 0.22 | 0.00 | 84 | 1020.9 |
| 20260831142549 | 79 | 128 | 1.0 | 7.0 | 0.00 | 0.22 | 0.00 | 87 | 1020.9 |
| 20260831142048 | 78 | 121 | 1.0 | 7.0 | 0.00 | 0.22 | 0.00 | 90 | 1020.8 |
| 20260831141816 | 78 | 119 | 3.0 | 7.0 | 0.00 | 0.22 | 0.00 | 90 | 1021.7 |
| 20260831141540 | 77 | 119 | 1.0 | 5.0 | 0.00 | 0.22 | 0.00 | 91 | 1020.9 |